TimePST,TemperatureF,Dew PointF,Humidity,Sea Level PressureIn,VisibilityMPH,Wind Direction,Wind SpeedMPH,Gust SpeedMPH,PrecipitationIn,Events,Conditions,WindDirDegrees,DateUTC
12:52 AM,46.9,21.9,37,30.06,10.0,ENE,9.2,-,N/A,,Clear,60,2013-01-08 08:52:00
1:52 AM,44.1,21.9,42,30.07,10.0,NNE,12.7,-,N/A,,Clear,30,2013-01-08 09:52:00
2:52 AM,46.9,24.1,41,30.07,10.0,NE,9.2,-,N/A,,Clear,50,2013-01-08 10:52:00
3:52 AM,46.0,25.0,44,30.07,10.0,ENE,9.2,-,N/A,,Clear,60,2013-01-08 11:52:00
4:52 AM,43.0,23.0,45,30.09,10.0,Calm,Calm,-,N/A,,Clear,0,2013-01-08 12:52:00
6:52 AM,44.1,25.0,47,30.13,10.0,NNE,12.7,17.3,N/A,,Clear,20,2013-01-08 14:52:00
7:52 AM,45.0,25.0,46,30.17,10.0,North,5.8,-,N/A,,Clear,10,2013-01-08 15:52:00
8:52 AM,48.9,25.0,39,30.18,10.0,ENE,12.7,20.7,N/A,,Clear,60,2013-01-08 16:52:00
9:52 AM,52.0,25.0,35,30.19,10.0,NE,16.1,-,N/A,,Clear,40,2013-01-08 17:52:00
10:52 AM,57.0,24.1,28,30.16,10.0,NNE,11.5,-,N/A,,Clear,30,2013-01-08 18:52:00
11:52 AM,57.9,24.1,27,30.13,10.0,NE,13.8,-,N/A,,Clear,40,2013-01-08 19:52:00
12:52 PM,61.0,25.0,25,30.09,10.0,NE,11.5,-,N/A,,Clear,50,2013-01-08 20:52:00
1:52 PM,62.1,26.1,25,30.10,10.0,NE,9.2,-,N/A,,Clear,50,2013-01-08 21:52:00
2:52 PM,61.0,25.0,25,30.10,10.0,East,8.1,-,N/A,,Clear,80,2013-01-08 22:52:00
3:52 PM,60.1,25.0,26,30.11,10.0,ESE,10.4,-,N/A,,Clear,110,2013-01-08 23:52:00
4:52 PM,55.0,25.0,31,30.14,10.0,East,5.8,-,N/A,,Clear,80,2013-01-09 00:52:00
5:52 PM,52.0,28.0,40,30.16,10.0,NE,13.8,-,N/A,,Clear,50,2013-01-09 01:52:00
6:52 PM,48.9,27.0,43,30.19,10.0,ESE,8.1,-,N/A,,Clear,110,2013-01-09 02:52:00
7:52 PM,46.9,28.0,48,30.21,10.0,East,6.9,-,N/A,,Clear,100,2013-01-09 03:52:00
8:52 PM,48.0,28.0,46,30.19,10.0,ENE,9.2,16.1,N/A,,Clear,60,2013-01-09 04:52:00
9:52 PM,46.9,28.0,48,30.20,10.0,NNE,12.7,-,N/A,,Clear,30,2013-01-09 05:52:00
10:52 PM,46.0,28.0,50,30.21,10.0,NE,5.8,-,N/A,,Clear,50,2013-01-09 06:52:00
11:52 PM,45.0,28.0,52,30.21,10.0,ENE,4.6,-,N/A,,Clear,60,2013-01-09 07:52:00